Index of /20260430/WXO-DD/model_rdps/10km/00/012
Name Last modified Size Description
Parent Directory -
20260430T00Z_MSC_RDPS_AbsoluteVorticity_IsbL-0250_RLatLon0.09_PT012H.grib2 2026-04-30 02:41 626K
20260430T00Z_MSC_RDPS_AbsoluteVorticity_IsbL-0500_RLatLon0.09_PT012H.grib2 2026-04-30 02:41 576K
20260430T00Z_MSC_RDPS_AbsoluteVorticity_IsbL-0700_RLatLon0.09_PT012H.grib2 2026-04-30 02:41 758K
20260430T00Z_MSC_RDPS_AbsoluteVorticity_IsbL-0850_RLatLon0.09_PT012H.grib2 2026-04-30 02:41 777K
20260430T00Z_MSC_RDPS_AirTemp_AGL-120m_RLatLon0.09_PT012H.grib2 2026-04-30 02:41 380K
20260430T00Z_MSC_RDPS_AirTemp_AGL-2m_RLatLon0.09_PT012H.grib2 2026-04-30 02:41 637K
20260430T00Z_MSC_RDPS_AirTemp_AGL-40m_RLatLon0.09_PT012H.grib2 2026-04-30 02:41 413K
20260430T00Z_MSC_RDPS_AirTemp_AGL-80m_RLatLon0.09_PT012H.grib2 2026-04-30 02:41 389K
20260430T00Z_MSC_RDPS_AirTemp_IsbL-0001_RLatLon0.09_PT012H.grib2 2026-04-30 02:41 306K
20260430T00Z_MSC_RDPS_AirTemp_IsbL-0005_RLatLon0.09_PT012H.grib2 2026-04-30 02:41 286K
20260430T00Z_MSC_RDPS_AirTemp_IsbL-0010_RLatLon0.09_PT012H.grib2 2026-04-30 02:41 296K
20260430T00Z_MSC_RDPS_AirTemp_IsbL-0020_RLatLon0.09_PT012H.grib2 2026-04-30 02:41 310K
20260430T00Z_MSC_RDPS_AirTemp_IsbL-0030_RLatLon0.09_PT012H.grib2 2026-04-30 02:41 334K
20260430T00Z_MSC_RDPS_AirTemp_IsbL-0050_RLatLon0.09_PT012H.grib2 2026-04-30 02:41 311K
20260430T00Z_MSC_RDPS_AirTemp_IsbL-0100_RLatLon0.09_PT012H.grib2 2026-04-30 02:41 424K
20260430T00Z_MSC_RDPS_AirTemp_IsbL-0150_RLatLon0.09_PT012H.grib2 2026-04-30 02:41 427K
20260430T00Z_MSC_RDPS_AirTemp_IsbL-0175_RLatLon0.09_PT012H.grib2 2026-04-30 02:41 414K
20260430T00Z_MSC_RDPS_AirTemp_IsbL-0200_RLatLon0.09_PT012H.grib2 2026-04-30 02:41 416K
20260430T00Z_MSC_RDPS_AirTemp_IsbL-0225_RLatLon0.09_PT012H.grib2 2026-04-30 02:41 420K
20260430T00Z_MSC_RDPS_AirTemp_IsbL-0250_RLatLon0.09_PT012H.grib2 2026-04-30 02:41 432K
20260430T00Z_MSC_RDPS_AirTemp_IsbL-0275_RLatLon0.09_PT012H.grib2 2026-04-30 02:41 410K
20260430T00Z_MSC_RDPS_AirTemp_IsbL-0300_RLatLon0.09_PT012H.grib2 2026-04-30 02:41 414K
20260430T00Z_MSC_RDPS_AirTemp_IsbL-0350_RLatLon0.09_PT012H.grib2 2026-04-30 02:41 428K
20260430T00Z_MSC_RDPS_AirTemp_IsbL-0400_RLatLon0.09_PT012H.grib2 2026-04-30 02:41 430K
20260430T00Z_MSC_RDPS_AirTemp_IsbL-0450_RLatLon0.09_PT012H.grib2 2026-04-30 02:41 437K
20260430T00Z_MSC_RDPS_AirTemp_IsbL-0500_RLatLon0.09_PT012H.grib2 2026-04-30 02:41 412K
20260430T00Z_MSC_RDPS_AirTemp_IsbL-0550_RLatLon0.09_PT012H.grib2 2026-04-30 02:41 429K
20260430T00Z_MSC_RDPS_AirTemp_IsbL-0600_RLatLon0.09_PT012H.grib2 2026-04-30 02:41 449K
20260430T00Z_MSC_RDPS_AirTemp_IsbL-0650_RLatLon0.09_PT012H.grib2 2026-04-30 02:41 464K
20260430T00Z_MSC_RDPS_AirTemp_IsbL-0700_RLatLon0.09_PT012H.grib2 2026-04-30 02:41 487K
20260430T00Z_MSC_RDPS_AirTemp_IsbL-0750_RLatLon0.09_PT012H.grib2 2026-04-30 02:41 521K
20260430T00Z_MSC_RDPS_AirTemp_IsbL-0800_RLatLon0.09_PT012H.grib2 2026-04-30 02:41 450K
20260430T00Z_MSC_RDPS_AirTemp_IsbL-0850_RLatLon0.09_PT012H.grib2 2026-04-30 02:41 501K
20260430T00Z_MSC_RDPS_AirTemp_IsbL-0875_RLatLon0.09_PT012H.grib2 2026-04-30 02:41 521K
20260430T00Z_MSC_RDPS_AirTemp_IsbL-0900_RLatLon0.09_PT012H.grib2 2026-04-30 02:41 530K
20260430T00Z_MSC_RDPS_AirTemp_IsbL-0925_RLatLon0.09_PT012H.grib2 2026-04-30 02:41 528K
20260430T00Z_MSC_RDPS_AirTemp_IsbL-0950_RLatLon0.09_PT012H.grib2 2026-04-30 02:41 531K
20260430T00Z_MSC_RDPS_AirTemp_IsbL-0970_RLatLon0.09_PT012H.grib2 2026-04-30 02:41 524K
20260430T00Z_MSC_RDPS_AirTemp_IsbL-0985_RLatLon0.09_PT012H.grib2 2026-04-30 02:41 508K
20260430T00Z_MSC_RDPS_AirTemp_IsbL-1000_RLatLon0.09_PT012H.grib2 2026-04-30 02:41 490K
20260430T00Z_MSC_RDPS_AirTemp_IsbL-1015_RLatLon0.09_PT012H.grib2 2026-04-30 02:41 488K
20260430T00Z_MSC_RDPS_Albedo_Sfc_RLatLon0.09_PT012H.grib2 2026-04-30 02:41 154K
20260430T00Z_MSC_RDPS_CAPE_Sfc_RLatLon0.09_PT012H.grib2 2026-04-30 02:41 1.5M
20260430T00Z_MSC_RDPS_CIN_Sfc_RLatLon0.09_PT012H.grib2 2026-04-30 02:41 1.0M
20260430T00Z_MSC_RDPS_CloudWater_EAtm_RLatLon0.09_PT012H.grib2 2026-04-30 02:41 218K
20260430T00Z_MSC_RDPS_ConvectivePrecip-Accum_Sfc_RLatLon0.09_PT012H.grib2 2026-04-30 02:41 599K
20260430T00Z_MSC_RDPS_DewPointDepression_AGL-2m_RLatLon0.09_PT012H.grib2 2026-04-30 02:41 396K
20260430T00Z_MSC_RDPS_DewPointDepression_IsbL-0001_RLatLon0.09_PT012H.grib2 2026-04-30 02:41 193
20260430T00Z_MSC_RDPS_DewPointDepression_IsbL-0005_RLatLon0.09_PT012H.grib2 2026-04-30 02:41 193
20260430T00Z_MSC_RDPS_DewPointDepression_IsbL-0010_RLatLon0.09_PT012H.grib2 2026-04-30 02:41 193
20260430T00Z_MSC_RDPS_DewPointDepression_IsbL-0020_RLatLon0.09_PT012H.grib2 2026-04-30 02:41 193
20260430T00Z_MSC_RDPS_DewPointDepression_IsbL-0030_RLatLon0.09_PT012H.grib2 2026-04-30 02:41 193
20260430T00Z_MSC_RDPS_DewPointDepression_IsbL-0050_RLatLon0.09_PT012H.grib2 2026-04-30 02:41 84K
20260430T00Z_MSC_RDPS_DewPointDepression_IsbL-0100_RLatLon0.09_PT012H.grib2 2026-04-30 02:41 131K
20260430T00Z_MSC_RDPS_DewPointDepression_IsbL-0150_RLatLon0.09_PT012H.grib2 2026-04-30 02:41 150K
20260430T00Z_MSC_RDPS_DewPointDepression_IsbL-0175_RLatLon0.09_PT012H.grib2 2026-04-30 02:41 180K
20260430T00Z_MSC_RDPS_DewPointDepression_IsbL-0200_RLatLon0.09_PT012H.grib2 2026-04-30 02:41 220K
20260430T00Z_MSC_RDPS_DewPointDepression_IsbL-0225_RLatLon0.09_PT012H.grib2 2026-04-30 02:41 265K
20260430T00Z_MSC_RDPS_DewPointDepression_IsbL-0250_RLatLon0.09_PT012H.grib2 2026-04-30 02:41 306K
20260430T00Z_MSC_RDPS_DewPointDepression_IsbL-0275_RLatLon0.09_PT012H.grib2 2026-04-30 02:41 311K
20260430T00Z_MSC_RDPS_DewPointDepression_IsbL-0300_RLatLon0.09_PT012H.grib2 2026-04-30 02:41 331K
20260430T00Z_MSC_RDPS_DewPointDepression_IsbL-0350_RLatLon0.09_PT012H.grib2 2026-04-30 02:41 335K
20260430T00Z_MSC_RDPS_DewPointDepression_IsbL-0400_RLatLon0.09_PT012H.grib2 2026-04-30 02:41 342K
20260430T00Z_MSC_RDPS_DewPointDepression_IsbL-0450_RLatLon0.09_PT012H.grib2 2026-04-30 02:41 347K
20260430T00Z_MSC_RDPS_DewPointDepression_IsbL-0500_RLatLon0.09_PT012H.grib2 2026-04-30 02:41 350K
20260430T00Z_MSC_RDPS_DewPointDepression_IsbL-0550_RLatLon0.09_PT012H.grib2 2026-04-30 02:41 359K
20260430T00Z_MSC_RDPS_DewPointDepression_IsbL-0600_RLatLon0.09_PT012H.grib2 2026-04-30 02:41 375K
20260430T00Z_MSC_RDPS_DewPointDepression_IsbL-0650_RLatLon0.09_PT012H.grib2 2026-04-30 02:41 382K
20260430T00Z_MSC_RDPS_DewPointDepression_IsbL-0700_RLatLon0.09_PT012H.grib2 2026-04-30 02:41 388K
20260430T00Z_MSC_RDPS_DewPointDepression_IsbL-0750_RLatLon0.09_PT012H.grib2 2026-04-30 02:41 407K
20260430T00Z_MSC_RDPS_DewPointDepression_IsbL-0800_RLatLon0.09_PT012H.grib2 2026-04-30 02:41 435K
20260430T00Z_MSC_RDPS_DewPointDepression_IsbL-0850_RLatLon0.09_PT012H.grib2 2026-04-30 02:41 465K
20260430T00Z_MSC_RDPS_DewPointDepression_IsbL-0875_RLatLon0.09_PT012H.grib2 2026-04-30 02:41 467K
20260430T00Z_MSC_RDPS_DewPointDepression_IsbL-0900_RLatLon0.09_PT012H.grib2 2026-04-30 02:41 459K
20260430T00Z_MSC_RDPS_DewPointDepression_IsbL-0925_RLatLon0.09_PT012H.grib2 2026-04-30 02:41 447K
20260430T00Z_MSC_RDPS_DewPointDepression_IsbL-0950_RLatLon0.09_PT012H.grib2 2026-04-30 02:41 444K
20260430T00Z_MSC_RDPS_DewPointDepression_IsbL-0970_RLatLon0.09_PT012H.grib2 2026-04-30 02:41 437K
20260430T00Z_MSC_RDPS_DewPointDepression_IsbL-0985_RLatLon0.09_PT012H.grib2 2026-04-30 02:41 429K
20260430T00Z_MSC_RDPS_DewPointDepression_IsbL-1000_RLatLon0.09_PT012H.grib2 2026-04-30 02:41 423K
20260430T00Z_MSC_RDPS_DewPointDepression_IsbL-1015_RLatLon0.09_PT012H.grib2 2026-04-30 02:41 414K
20260430T00Z_MSC_RDPS_DewPoint_AGL-2m_RLatLon0.09_PT012H.grib2 2026-04-30 02:41 308K
20260430T00Z_MSC_RDPS_DownwardLongwaveRadiationFlux-Accum_Sfc_RLatLon0.09_PT012H.grib2 2026-04-30 02:41 459K
20260430T00Z_MSC_RDPS_DownwardShortwaveRadiationFlux-Accum_NTAtm_RLatLon0.09_PT012H.grib2 2026-04-30 02:41 110K
20260430T00Z_MSC_RDPS_DownwardShortwaveRadiationFlux-Accum_Sfc_RLatLon0.09_PT012H.grib2 2026-04-30 02:41 385K
20260430T00Z_MSC_RDPS_FreezingRain-Accum12h_Sfc_RLatLon0.09_PT012H.grib2 2026-04-30 02:41 78K
20260430T00Z_MSC_RDPS_FreezingRain-Accum1h_Sfc_RLatLon0.09_PT012H.grib2 2026-04-30 02:41 40K
20260430T00Z_MSC_RDPS_FreezingRain-Accum3h_Sfc_RLatLon0.09_PT012H.grib2 2026-04-30 02:41 41K
20260430T00Z_MSC_RDPS_FreezingRain-Accum6h_Sfc_RLatLon0.09_PT012H.grib2 2026-04-30 02:41 60K
20260430T00Z_MSC_RDPS_FreezingRain-Accum_Sfc_RLatLon0.09_PT012H.grib2 2026-04-30 02:41 93K
20260430T00Z_MSC_RDPS_GeopotentialHeight_IsbL-0001_RLatLon0.09_PT012H.grib2 2026-04-30 02:41 314K
20260430T00Z_MSC_RDPS_GeopotentialHeight_IsbL-0005_RLatLon0.09_PT012H.grib2 2026-04-30 02:41 338K
20260430T00Z_MSC_RDPS_GeopotentialHeight_IsbL-0010_RLatLon0.09_PT012H.grib2 2026-04-30 02:41 306K
20260430T00Z_MSC_RDPS_GeopotentialHeight_IsbL-0020_RLatLon0.09_PT012H.grib2 2026-04-30 02:41 305K
20260430T00Z_MSC_RDPS_GeopotentialHeight_IsbL-0030_RLatLon0.09_PT012H.grib2 2026-04-30 02:41 306K
20260430T00Z_MSC_RDPS_GeopotentialHeight_IsbL-0050_RLatLon0.09_PT012H.grib2 2026-04-30 02:41 308K
20260430T00Z_MSC_RDPS_GeopotentialHeight_IsbL-0100_RLatLon0.09_PT012H.grib2 2026-04-30 02:41 285K
20260430T00Z_MSC_RDPS_GeopotentialHeight_IsbL-0150_RLatLon0.09_PT012H.grib2 2026-04-30 02:41 229K
20260430T00Z_MSC_RDPS_GeopotentialHeight_IsbL-0175_RLatLon0.09_PT012H.grib2 2026-04-30 02:41 232K
20260430T00Z_MSC_RDPS_GeopotentialHeight_IsbL-0200_RLatLon0.09_PT012H.grib2 2026-04-30 02:41 264K
20260430T00Z_MSC_RDPS_GeopotentialHeight_IsbL-0225_RLatLon0.09_PT012H.grib2 2026-04-30 02:41 267K
20260430T00Z_MSC_RDPS_GeopotentialHeight_IsbL-0250_RLatLon0.09_PT012H.grib2 2026-04-30 02:41 267K
20260430T00Z_MSC_RDPS_GeopotentialHeight_IsbL-0275_RLatLon0.09_PT012H.grib2 2026-04-30 02:41 267K
20260430T00Z_MSC_RDPS_GeopotentialHeight_IsbL-0300_RLatLon0.09_PT012H.grib2 2026-04-30 02:41 236K
20260430T00Z_MSC_RDPS_GeopotentialHeight_IsbL-0350_RLatLon0.09_PT012H.grib2 2026-04-30 02:41 233K
20260430T00Z_MSC_RDPS_GeopotentialHeight_IsbL-0400_RLatLon0.09_PT012H.grib2 2026-04-30 02:41 230K
20260430T00Z_MSC_RDPS_GeopotentialHeight_IsbL-0450_RLatLon0.09_PT012H.grib2 2026-04-30 02:41 298K
20260430T00Z_MSC_RDPS_GeopotentialHeight_IsbL-0500_RLatLon0.09_PT012H.grib2 2026-04-30 02:41 292K
20260430T00Z_MSC_RDPS_GeopotentialHeight_IsbL-0550_RLatLon0.09_PT012H.grib2 2026-04-30 02:41 288K
20260430T00Z_MSC_RDPS_GeopotentialHeight_IsbL-0600_RLatLon0.09_PT012H.grib2 2026-04-30 02:41 285K
20260430T00Z_MSC_RDPS_GeopotentialHeight_IsbL-0650_RLatLon0.09_PT012H.grib2 2026-04-30 02:41 253K
20260430T00Z_MSC_RDPS_GeopotentialHeight_IsbL-0700_RLatLon0.09_PT012H.grib2 2026-04-30 02:41 333K
20260430T00Z_MSC_RDPS_GeopotentialHeight_IsbL-0750_RLatLon0.09_PT012H.grib2 2026-04-30 02:41 335K
20260430T00Z_MSC_RDPS_GeopotentialHeight_IsbL-0800_RLatLon0.09_PT012H.grib2 2026-04-30 02:41 343K
20260430T00Z_MSC_RDPS_GeopotentialHeight_IsbL-0850_RLatLon0.09_PT012H.grib2 2026-04-30 02:41 385K
20260430T00Z_MSC_RDPS_GeopotentialHeight_IsbL-0875_RLatLon0.09_PT012H.grib2 2026-04-30 02:41 388K
20260430T00Z_MSC_RDPS_GeopotentialHeight_IsbL-0900_RLatLon0.09_PT012H.grib2 2026-04-30 02:41 393K
20260430T00Z_MSC_RDPS_GeopotentialHeight_IsbL-0925_RLatLon0.09_PT012H.grib2 2026-04-30 02:41 396K
20260430T00Z_MSC_RDPS_GeopotentialHeight_IsbL-0950_RLatLon0.09_PT012H.grib2 2026-04-30 02:41 401K
20260430T00Z_MSC_RDPS_GeopotentialHeight_IsbL-0970_RLatLon0.09_PT012H.grib2 2026-04-30 02:41 407K
20260430T00Z_MSC_RDPS_GeopotentialHeight_IsbL-0985_RLatLon0.09_PT012H.grib2 2026-04-30 02:41 416K
20260430T00Z_MSC_RDPS_GeopotentialHeight_IsbL-1000_RLatLon0.09_PT012H.grib2 2026-04-30 02:41 428K
20260430T00Z_MSC_RDPS_GeopotentialHeight_IsbL-1015_RLatLon0.09_PT012H.grib2 2026-04-30 02:41 444K
20260430T00Z_MSC_RDPS_Humidex_Sfc_RLatLon0.09_PT012H.grib2 2026-04-30 02:41 2.4M
20260430T00Z_MSC_RDPS_IcePellets-Accum12h_Sfc_RLatLon0.09_PT012H.grib2 2026-04-30 02:41 4.0K
20260430T00Z_MSC_RDPS_IcePellets-Accum1h_Sfc_RLatLon0.09_PT012H.grib2 2026-04-30 02:41 1.8K
20260430T00Z_MSC_RDPS_IcePellets-Accum3h_Sfc_RLatLon0.09_PT012H.grib2 2026-04-30 02:41 2.0K
20260430T00Z_MSC_RDPS_IcePellets-Accum6h_Sfc_RLatLon0.09_PT012H.grib2 2026-04-30 02:41 2.2K
20260430T00Z_MSC_RDPS_IcePellets-Accum_Sfc_RLatLon0.09_PT012H.grib2 2026-04-30 02:41 4.4K
20260430T00Z_MSC_RDPS_KIndex_Sfc_RLatLon0.09_PT012H.grib2 2026-04-30 02:41 2.3M
20260430T00Z_MSC_RDPS_LatentHeatNetFlux_Sfc_RLatLon0.09_PT012H.grib2 2026-04-30 02:41 411K
20260430T00Z_MSC_RDPS_LiftedIndex-MU-VT_IsbL-0500_RLatLon0.09_PT012H.grib2 2026-04-30 02:41 2.4M
20260430T00Z_MSC_RDPS_NetLongwaveRadiationFlux-Accum_Sfc_RLatLon0.09_PT012H.grib2 2026-04-30 02:41 593K
20260430T00Z_MSC_RDPS_NetShortwaveRadiationFlux-Accum_Sfc_RLatLon0.09_PT012H.grib2 2026-04-30 02:41 487K
20260430T00Z_MSC_RDPS_PlanetaryBoundaryLayerHeight_Sfc_RLatLon0.09_PT012H.grib2 2026-04-30 02:41 1.1M
20260430T00Z_MSC_RDPS_Precip-Accum12h_Sfc_RLatLon0.09_PT012H.grib2 2026-04-30 02:41 1.6M
20260430T00Z_MSC_RDPS_Precip-Accum1h_Sfc_RLatLon0.09_PT012H.grib2 2026-04-30 02:41 1.2M
20260430T00Z_MSC_RDPS_Precip-Accum3h_Sfc_RLatLon0.09_PT012H.grib2 2026-04-30 02:41 1.3M
20260430T00Z_MSC_RDPS_Precip-Accum6h_Sfc_RLatLon0.09_PT012H.grib2 2026-04-30 02:41 1.4M
20260430T00Z_MSC_RDPS_Precip-Accum_Sfc_RLatLon0.09_PT012H.grib2 2026-04-30 02:41 1.6M
20260430T00Z_MSC_RDPS_PrecipRate_Sfc_RLatLon0.09_PT012H.grib2 2026-04-30 02:41 173K
20260430T00Z_MSC_RDPS_PrecipType-Instant_Sfc_RLatLon0.09_PT012H.grib2 2026-04-30 02:41 567K
20260430T00Z_MSC_RDPS_Pressure-Trend3h_Sfc_RLatLon0.09_PT012H.grib2 2026-04-30 02:41 1.2M
20260430T00Z_MSC_RDPS_Pressure_MSL_RLatLon0.09_PT012H.grib2 2026-04-30 02:41 293K
20260430T00Z_MSC_RDPS_Pressure_PVU-1.5_RLatLon0.09_PT012H.grib2 2026-04-30 02:41 2.3M
20260430T00Z_MSC_RDPS_Pressure_PVU-1_RLatLon0.09_PT012H.grib2 2026-04-30 02:41 2.4M
20260430T00Z_MSC_RDPS_Pressure_PVU-2_RLatLon0.09_PT012H.grib2 2026-04-30 02:41 2.3M
20260430T00Z_MSC_RDPS_Pressure_Sfc_RLatLon0.09_PT012H.grib2 2026-04-30 02:41 502K
20260430T00Z_MSC_RDPS_RadiativeTemp_Sfc_RLatLon0.09_PT012H.grib2 2026-04-30 02:41 305K
20260430T00Z_MSC_RDPS_Rain-Accum12h_Sfc_RLatLon0.09_PT012H.grib2 2026-04-30 02:41 1.1M
20260430T00Z_MSC_RDPS_Rain-Accum1h_Sfc_RLatLon0.09_PT012H.grib2 2026-04-30 02:41 530K
20260430T00Z_MSC_RDPS_Rain-Accum3h_Sfc_RLatLon0.09_PT012H.grib2 2026-04-30 02:41 615K
20260430T00Z_MSC_RDPS_Rain-Accum6h_Sfc_RLatLon0.09_PT012H.grib2 2026-04-30 02:41 907K
20260430T00Z_MSC_RDPS_Rain-Accum_Sfc_RLatLon0.09_PT012H.grib2 2026-04-30 02:41 1.2M
20260430T00Z_MSC_RDPS_RelativeHumidity_AGL-2m_RLatLon0.09_PT012H.grib2 2026-04-30 02:41 1.0M
20260430T00Z_MSC_RDPS_RelativeHumidity_IsbL-0010_RLatLon0.09_PT012H.grib2 2026-04-30 02:41 644K
20260430T00Z_MSC_RDPS_RelativeHumidity_IsbL-0020_RLatLon0.09_PT012H.grib2 2026-04-30 02:41 688K
20260430T00Z_MSC_RDPS_RelativeHumidity_IsbL-0030_RLatLon0.09_PT012H.grib2 2026-04-30 02:41 604K
20260430T00Z_MSC_RDPS_RelativeHumidity_IsbL-0050_RLatLon0.09_PT012H.grib2 2026-04-30 02:41 371K
20260430T00Z_MSC_RDPS_RelativeHumidity_IsbL-0100_RLatLon0.09_PT012H.grib2 2026-04-30 02:41 287K
20260430T00Z_MSC_RDPS_RelativeHumidity_IsbL-0150_RLatLon0.09_PT012H.grib2 2026-04-30 02:41 410K
20260430T00Z_MSC_RDPS_RelativeHumidity_IsbL-0175_RLatLon0.09_PT012H.grib2 2026-04-30 02:41 480K
20260430T00Z_MSC_RDPS_RelativeHumidity_IsbL-0200_RLatLon0.09_PT012H.grib2 2026-04-30 02:41 557K
20260430T00Z_MSC_RDPS_RelativeHumidity_IsbL-0225_RLatLon0.09_PT012H.grib2 2026-04-30 02:41 629K
20260430T00Z_MSC_RDPS_RelativeHumidity_IsbL-0250_RLatLon0.09_PT012H.grib2 2026-04-30 02:41 705K
20260430T00Z_MSC_RDPS_RelativeHumidity_IsbL-0275_RLatLon0.09_PT012H.grib2 2026-04-30 02:41 732K
20260430T00Z_MSC_RDPS_RelativeHumidity_IsbL-0300_RLatLon0.09_PT012H.grib2 2026-04-30 02:41 775K
20260430T00Z_MSC_RDPS_RelativeHumidity_IsbL-0350_RLatLon0.09_PT012H.grib2 2026-04-30 02:41 792K
20260430T00Z_MSC_RDPS_RelativeHumidity_IsbL-0400_RLatLon0.09_PT012H.grib2 2026-04-30 02:41 803K
20260430T00Z_MSC_RDPS_RelativeHumidity_IsbL-0450_RLatLon0.09_PT012H.grib2 2026-04-30 02:41 805K
20260430T00Z_MSC_RDPS_RelativeHumidity_IsbL-0500_RLatLon0.09_PT012H.grib2 2026-04-30 02:41 808K
20260430T00Z_MSC_RDPS_RelativeHumidity_IsbL-0550_RLatLon0.09_PT012H.grib2 2026-04-30 02:41 833K
20260430T00Z_MSC_RDPS_RelativeHumidity_IsbL-0600_RLatLon0.09_PT012H.grib2 2026-04-30 02:41 854K
20260430T00Z_MSC_RDPS_RelativeHumidity_IsbL-0650_RLatLon0.09_PT012H.grib2 2026-04-30 02:41 870K
20260430T00Z_MSC_RDPS_RelativeHumidity_IsbL-0700_RLatLon0.09_PT012H.grib2 2026-04-30 02:41 893K
20260430T00Z_MSC_RDPS_RelativeHumidity_IsbL-0750_RLatLon0.09_PT012H.grib2 2026-04-30 02:41 931K
20260430T00Z_MSC_RDPS_RelativeHumidity_IsbL-0800_RLatLon0.09_PT012H.grib2 2026-04-30 02:41 1.0M
20260430T00Z_MSC_RDPS_RelativeHumidity_IsbL-0850_RLatLon0.09_PT012H.grib2 2026-04-30 02:41 1.0M
20260430T00Z_MSC_RDPS_RelativeHumidity_IsbL-0875_RLatLon0.09_PT012H.grib2 2026-04-30 02:41 1.0M
20260430T00Z_MSC_RDPS_RelativeHumidity_IsbL-0900_RLatLon0.09_PT012H.grib2 2026-04-30 02:41 1.1M
20260430T00Z_MSC_RDPS_RelativeHumidity_IsbL-0925_RLatLon0.09_PT012H.grib2 2026-04-30 02:41 1.1M
20260430T00Z_MSC_RDPS_RelativeHumidity_IsbL-0950_RLatLon0.09_PT012H.grib2 2026-04-30 02:41 1.1M
20260430T00Z_MSC_RDPS_RelativeHumidity_IsbL-0970_RLatLon0.09_PT012H.grib2 2026-04-30 02:41 1.1M
20260430T00Z_MSC_RDPS_RelativeHumidity_IsbL-0985_RLatLon0.09_PT012H.grib2 2026-04-30 02:41 1.0M
20260430T00Z_MSC_RDPS_RelativeHumidity_IsbL-1000_RLatLon0.09_PT012H.grib2 2026-04-30 02:41 1.0M
20260430T00Z_MSC_RDPS_RelativeHumidity_IsbL-1015_RLatLon0.09_PT012H.grib2 2026-04-30 02:41 1.0M
20260430T00Z_MSC_RDPS_Runoff-Accum_Sfc_RLatLon0.09_PT012H.grib2 2026-04-30 02:41 32K
20260430T00Z_MSC_RDPS_SWEATIndex_Sfc_RLatLon0.09_PT012H.grib2 2026-04-30 02:41 2.4M
20260430T00Z_MSC_RDPS_SeeingIndex_EAtm_RLatLon0.09_PT012H.grib2 2026-04-30 02:41 1.1M
20260430T00Z_MSC_RDPS_SensibleHeatNetFlux_Sfc_RLatLon0.09_PT012H.grib2 2026-04-30 02:41 299K
20260430T00Z_MSC_RDPS_ShowalterIndex_IsbL-0500_RLatLon0.09_PT012H.grib2 2026-04-30 02:41 2.6M
20260430T00Z_MSC_RDPS_SkyTransparencyIndex_EAtm_RLatLon0.09_PT012H.grib2 2026-04-30 02:41 687K
20260430T00Z_MSC_RDPS_Snow-Accum12h_Sfc_RLatLon0.09_PT012H.grib2 2026-04-30 02:41 514K
20260430T00Z_MSC_RDPS_Snow-Accum1h_Sfc_RLatLon0.09_PT012H.grib2 2026-04-30 02:41 423K
20260430T00Z_MSC_RDPS_Snow-Accum3h_Sfc_RLatLon0.09_PT012H.grib2 2026-04-30 02:41 377K
20260430T00Z_MSC_RDPS_Snow-Accum6h_Sfc_RLatLon0.09_PT012H.grib2 2026-04-30 02:41 500K
20260430T00Z_MSC_RDPS_Snow-Accum_Sfc_RLatLon0.09_PT012H.grib2 2026-04-30 02:41 602K
20260430T00Z_MSC_RDPS_SnowDensity_Sfc_RLatLon0.09_PT012H.grib2 2026-04-30 02:41 173K
20260430T00Z_MSC_RDPS_SnowDepth_Sfc_RLatLon0.09_PT012H.grib2 2026-04-30 02:41 679K
20260430T00Z_MSC_RDPS_SoilTemp_DBS-0to10cm_RLatLon0.09_PT012H.grib2 2026-04-30 02:41 212K
20260430T00Z_MSC_RDPS_SoilTemp_Sfc_RLatLon0.09_PT012H.grib2 2026-04-30 02:41 274K
20260430T00Z_MSC_RDPS_SoilVolumetricIceContent_Sfc_RLatLon0.09_PT012H.grib2 2026-04-30 02:41 165K
20260430T00Z_MSC_RDPS_SoilVolumetricWaterContent_DBS-0to10cm_RLatLon0.09_PT012H.grib2 2026-04-30 02:41 266K
20260430T00Z_MSC_RDPS_SoilVolumetricWaterContent_DBS-0to1cm_RLatLon0.09_PT012H.grib2 2026-04-30 02:41 332K
20260430T00Z_MSC_RDPS_SpecificHumidity_AGL-120m_RLatLon0.09_PT012H.grib2 2026-04-30 02:41 485K
20260430T00Z_MSC_RDPS_SpecificHumidity_AGL-2m_RLatLon0.09_PT012H.grib2 2026-04-30 02:41 649K
20260430T00Z_MSC_RDPS_SpecificHumidity_AGL-40m_RLatLon0.09_PT012H.grib2 2026-04-30 02:41 490K
20260430T00Z_MSC_RDPS_SpecificHumidity_AGL-80m_RLatLon0.09_PT012H.grib2 2026-04-30 02:41 487K
20260430T00Z_MSC_RDPS_SpecificHumidity_IsbL-0001_RLatLon0.09_PT012H.grib2 2026-04-30 02:41 383K
20260430T00Z_MSC_RDPS_SpecificHumidity_IsbL-0005_RLatLon0.09_PT012H.grib2 2026-04-30 02:41 359K
20260430T00Z_MSC_RDPS_SpecificHumidity_IsbL-0010_RLatLon0.09_PT012H.grib2 2026-04-30 02:41 395K
20260430T00Z_MSC_RDPS_SpecificHumidity_IsbL-0020_RLatLon0.09_PT012H.grib2 2026-04-30 02:41 386K
20260430T00Z_MSC_RDPS_SpecificHumidity_IsbL-0030_RLatLon0.09_PT012H.grib2 2026-04-30 02:41 370K
20260430T00Z_MSC_RDPS_SpecificHumidity_IsbL-0050_RLatLon0.09_PT012H.grib2 2026-04-30 02:41 462K
20260430T00Z_MSC_RDPS_SpecificHumidity_IsbL-0100_RLatLon0.09_PT012H.grib2 2026-04-30 02:41 354K
20260430T00Z_MSC_RDPS_SpecificHumidity_IsbL-0150_RLatLon0.09_PT012H.grib2 2026-04-30 02:41 455K
20260430T00Z_MSC_RDPS_SpecificHumidity_IsbL-0175_RLatLon0.09_PT012H.grib2 2026-04-30 02:41 537K
20260430T00Z_MSC_RDPS_SpecificHumidity_IsbL-0200_RLatLon0.09_PT012H.grib2 2026-04-30 02:41 452K
20260430T00Z_MSC_RDPS_SpecificHumidity_IsbL-0225_RLatLon0.09_PT012H.grib2 2026-04-30 02:41 459K
20260430T00Z_MSC_RDPS_SpecificHumidity_IsbL-0250_RLatLon0.09_PT012H.grib2 2026-04-30 02:41 567K
20260430T00Z_MSC_RDPS_SpecificHumidity_IsbL-0275_RLatLon0.09_PT012H.grib2 2026-04-30 02:41 481K
20260430T00Z_MSC_RDPS_SpecificHumidity_IsbL-0300_RLatLon0.09_PT012H.grib2 2026-04-30 02:41 553K
20260430T00Z_MSC_RDPS_SpecificHumidity_IsbL-0350_RLatLon0.09_PT012H.grib2 2026-04-30 02:41 545K
20260430T00Z_MSC_RDPS_SpecificHumidity_IsbL-0400_RLatLon0.09_PT012H.grib2 2026-04-30 02:41 525K
20260430T00Z_MSC_RDPS_SpecificHumidity_IsbL-0450_RLatLon0.09_PT012H.grib2 2026-04-30 02:41 575K
20260430T00Z_MSC_RDPS_SpecificHumidity_IsbL-0500_RLatLon0.09_PT012H.grib2 2026-04-30 02:41 509K
20260430T00Z_MSC_RDPS_SpecificHumidity_IsbL-0550_RLatLon0.09_PT012H.grib2 2026-04-30 02:41 579K
20260430T00Z_MSC_RDPS_SpecificHumidity_IsbL-0600_RLatLon0.09_PT012H.grib2 2026-04-30 02:41 635K
20260430T00Z_MSC_RDPS_SpecificHumidity_IsbL-0650_RLatLon0.09_PT012H.grib2 2026-04-30 02:41 554K
20260430T00Z_MSC_RDPS_SpecificHumidity_IsbL-0700_RLatLon0.09_PT012H.grib2 2026-04-30 02:41 594K
20260430T00Z_MSC_RDPS_SpecificHumidity_IsbL-0750_RLatLon0.09_PT012H.grib2 2026-04-30 02:41 646K
20260430T00Z_MSC_RDPS_SpecificHumidity_IsbL-0800_RLatLon0.09_PT012H.grib2 2026-04-30 02:41 719K
20260430T00Z_MSC_RDPS_SpecificHumidity_IsbL-0850_RLatLon0.09_PT012H.grib2 2026-04-30 02:41 791K
20260430T00Z_MSC_RDPS_SpecificHumidity_IsbL-0875_RLatLon0.09_PT012H.grib2 2026-04-30 02:41 817K
20260430T00Z_MSC_RDPS_SpecificHumidity_IsbL-0900_RLatLon0.09_PT012H.grib2 2026-04-30 02:41 831K
20260430T00Z_MSC_RDPS_SpecificHumidity_IsbL-0925_RLatLon0.09_PT012H.grib2 2026-04-30 02:41 833K
20260430T00Z_MSC_RDPS_SpecificHumidity_IsbL-0950_RLatLon0.09_PT012H.grib2 2026-04-30 02:41 836K
20260430T00Z_MSC_RDPS_SpecificHumidity_IsbL-0970_RLatLon0.09_PT012H.grib2 2026-04-30 02:41 829K
20260430T00Z_MSC_RDPS_SpecificHumidity_IsbL-0985_RLatLon0.09_PT012H.grib2 2026-04-30 02:41 817K
20260430T00Z_MSC_RDPS_SpecificHumidity_IsbL-1000_RLatLon0.09_PT012H.grib2 2026-04-30 02:41 667K
20260430T00Z_MSC_RDPS_SpecificHumidity_IsbL-1015_RLatLon0.09_PT012H.grib2 2026-04-30 02:41 656K
20260430T00Z_MSC_RDPS_SpecificHumidity_Sfc_RLatLon0.09_PT012H.grib2 2026-04-30 02:41 291K
20260430T00Z_MSC_RDPS_StormRelativeHelicity_EtaL-10000_RLatLon0.09_PT012H.grib2 2026-04-30 02:41 1.2M
20260430T00Z_MSC_RDPS_StormSeverityIndex_EtaL-10000_RLatLon0.09_PT012H.grib2 2026-04-30 02:41 1.2M
20260430T00Z_MSC_RDPS_Thickness_IsbL-0850to0700_RLatLon0.09_PT012H.grib2 2026-04-30 02:41 178K
20260430T00Z_MSC_RDPS_Thickness_IsbL-1000to0500_RLatLon0.09_PT012H.grib2 2026-04-30 02:41 198K
20260430T00Z_MSC_RDPS_Thickness_IsbL-1000to0850_RLatLon0.09_PT012H.grib2 2026-04-30 02:41 263K
20260430T00Z_MSC_RDPS_TotalCloudCover_Sfc_RLatLon0.09_PT012H.grib2 2026-04-30 02:41 663K
20260430T00Z_MSC_RDPS_TotalTotalsIndex_Sfc_RLatLon0.09_PT012H.grib2 2026-04-30 02:41 2.3M
20260430T00Z_MSC_RDPS_UVIndex-ClearSky_Sfc_RLatLon0.09_PT012H.grib2 2026-04-30 02:41 143K
20260430T00Z_MSC_RDPS_UVIndex_Sfc_RLatLon0.09_PT012H.grib2 2026-04-30 02:41 333K
20260430T00Z_MSC_RDPS_UpwardLongwaveRadiationFlux_NTAtm_RLatLon0.09_PT012H.grib2 2026-04-30 02:41 493K
20260430T00Z_MSC_RDPS_UpwardShortwaveRadiationFlux_NTAtm_RLatLon0.09_PT012H.grib2 2026-04-30 02:41 302K
20260430T00Z_MSC_RDPS_VerticalVelocity_IsbL-0250_RLatLon0.09_PT012H.grib2 2026-04-30 02:41 559K
20260430T00Z_MSC_RDPS_VerticalVelocity_IsbL-0500_RLatLon0.09_PT012H.grib2 2026-04-30 02:41 550K
20260430T00Z_MSC_RDPS_VerticalVelocity_IsbL-0700_RLatLon0.09_PT012H.grib2 2026-04-30 02:41 590K
20260430T00Z_MSC_RDPS_VerticalVelocity_IsbL-0850_RLatLon0.09_PT012H.grib2 2026-04-30 02:41 686K
20260430T00Z_MSC_RDPS_VerticalWindShear_EtaL-6500_RLatLon0.09_PT012H.grib2 2026-04-30 02:41 1.2M
20260430T00Z_MSC_RDPS_WindChill_Sfc_RLatLon0.09_PT012H.grib2 2026-04-30 02:41 1.1M
20260430T00Z_MSC_RDPS_WindDir_AGL-10m_RLatLon0.09_PT012H.grib2 2026-04-30 02:41 1.0M
20260430T00Z_MSC_RDPS_WindDir_AGL-120m_RLatLon0.09_PT012H.grib2 2026-04-30 02:41 622K
20260430T00Z_MSC_RDPS_WindDir_AGL-40m_RLatLon0.09_PT012H.grib2 2026-04-30 02:41 653K
20260430T00Z_MSC_RDPS_WindDir_AGL-80m_RLatLon0.09_PT012H.grib2 2026-04-30 02:41 634K
20260430T00Z_MSC_RDPS_WindDir_IsbL-0001_RLatLon0.09_PT012H.grib2 2026-04-30 02:41 300K
20260430T00Z_MSC_RDPS_WindDir_IsbL-0005_RLatLon0.09_PT012H.grib2 2026-04-30 02:41 364K
20260430T00Z_MSC_RDPS_WindDir_IsbL-0010_RLatLon0.09_PT012H.grib2 2026-04-30 02:41 371K
20260430T00Z_MSC_RDPS_WindDir_IsbL-0020_RLatLon0.09_PT012H.grib2 2026-04-30 02:41 407K
20260430T00Z_MSC_RDPS_WindDir_IsbL-0030_RLatLon0.09_PT012H.grib2 2026-04-30 02:41 417K
20260430T00Z_MSC_RDPS_WindDir_IsbL-0050_RLatLon0.09_PT012H.grib2 2026-04-30 02:41 429K
20260430T00Z_MSC_RDPS_WindDir_IsbL-0100_RLatLon0.09_PT012H.grib2 2026-04-30 02:41 435K
20260430T00Z_MSC_RDPS_WindDir_IsbL-0150_RLatLon0.09_PT012H.grib2 2026-04-30 02:41 428K
20260430T00Z_MSC_RDPS_WindDir_IsbL-0175_RLatLon0.09_PT012H.grib2 2026-04-30 02:41 446K
20260430T00Z_MSC_RDPS_WindDir_IsbL-0200_RLatLon0.09_PT012H.grib2 2026-04-30 02:41 458K
20260430T00Z_MSC_RDPS_WindDir_IsbL-0225_RLatLon0.09_PT012H.grib2 2026-04-30 02:41 464K
20260430T00Z_MSC_RDPS_WindDir_IsbL-0250_RLatLon0.09_PT012H.grib2 2026-04-30 02:41 469K
20260430T00Z_MSC_RDPS_WindDir_IsbL-0275_RLatLon0.09_PT012H.grib2 2026-04-30 02:41 492K
20260430T00Z_MSC_RDPS_WindDir_IsbL-0300_RLatLon0.09_PT012H.grib2 2026-04-30 02:41 485K
20260430T00Z_MSC_RDPS_WindDir_IsbL-0350_RLatLon0.09_PT012H.grib2 2026-04-30 02:41 505K
20260430T00Z_MSC_RDPS_WindDir_IsbL-0400_RLatLon0.09_PT012H.grib2 2026-04-30 02:41 517K
20260430T00Z_MSC_RDPS_WindDir_IsbL-0450_RLatLon0.09_PT012H.grib2 2026-04-30 02:41 528K
20260430T00Z_MSC_RDPS_WindDir_IsbL-0500_RLatLon0.09_PT012H.grib2 2026-04-30 02:41 544K
20260430T00Z_MSC_RDPS_WindDir_IsbL-0550_RLatLon0.09_PT012H.grib2 2026-04-30 02:41 562K
20260430T00Z_MSC_RDPS_WindDir_IsbL-0600_RLatLon0.09_PT012H.grib2 2026-04-30 02:41 597K
20260430T00Z_MSC_RDPS_WindDir_IsbL-0650_RLatLon0.09_PT012H.grib2 2026-04-30 02:41 646K
20260430T00Z_MSC_RDPS_WindDir_IsbL-0700_RLatLon0.09_PT012H.grib2 2026-04-30 02:41 696K
20260430T00Z_MSC_RDPS_WindDir_IsbL-0750_RLatLon0.09_PT012H.grib2 2026-04-30 02:41 741K
20260430T00Z_MSC_RDPS_WindDir_IsbL-0800_RLatLon0.09_PT012H.grib2 2026-04-30 02:41 800K
20260430T00Z_MSC_RDPS_WindDir_IsbL-0850_RLatLon0.09_PT012H.grib2 2026-04-30 02:41 875K
20260430T00Z_MSC_RDPS_WindDir_IsbL-0875_RLatLon0.09_PT012H.grib2 2026-04-30 02:41 903K
20260430T00Z_MSC_RDPS_WindDir_IsbL-0900_RLatLon0.09_PT012H.grib2 2026-04-30 02:41 919K
20260430T00Z_MSC_RDPS_WindDir_IsbL-0925_RLatLon0.09_PT012H.grib2 2026-04-30 02:41 925K
20260430T00Z_MSC_RDPS_WindDir_IsbL-0950_RLatLon0.09_PT012H.grib2 2026-04-30 02:41 928K
20260430T00Z_MSC_RDPS_WindDir_IsbL-0970_RLatLon0.09_PT012H.grib2 2026-04-30 02:41 940K
20260430T00Z_MSC_RDPS_WindDir_IsbL-0985_RLatLon0.09_PT012H.grib2 2026-04-30 02:41 949K
20260430T00Z_MSC_RDPS_WindDir_IsbL-1000_RLatLon0.09_PT012H.grib2 2026-04-30 02:41 964K
20260430T00Z_MSC_RDPS_WindDir_IsbL-1015_RLatLon0.09_PT012H.grib2 2026-04-30 02:41 1.0M
20260430T00Z_MSC_RDPS_WindGust-Max_AGL-10m_RLatLon0.09_PT012H.grib2 2026-04-30 02:41 1.0M
20260430T00Z_MSC_RDPS_WindGust-Min_AGL-10m_RLatLon0.09_PT012H.grib2 2026-04-30 02:41 970K
20260430T00Z_MSC_RDPS_WindGust_AGL-10m_RLatLon0.09_PT012H.grib2 2026-04-30 02:41 1.0M
20260430T00Z_MSC_RDPS_WindSpeed_AGL-10m_RLatLon0.09_PT012H.grib2 2026-04-30 02:41 843K
20260430T00Z_MSC_RDPS_WindSpeed_AGL-120m_RLatLon0.09_PT012H.grib2 2026-04-30 02:41 543K
20260430T00Z_MSC_RDPS_WindSpeed_AGL-40m_RLatLon0.09_PT012H.grib2 2026-04-30 02:41 543K
20260430T00Z_MSC_RDPS_WindSpeed_AGL-80m_RLatLon0.09_PT012H.grib2 2026-04-30 02:41 543K
20260430T00Z_MSC_RDPS_WindSpeed_IsbL-0001_RLatLon0.09_PT012H.grib2 2026-04-30 02:41 251K
20260430T00Z_MSC_RDPS_WindSpeed_IsbL-0005_RLatLon0.09_PT012H.grib2 2026-04-30 02:41 292K
20260430T00Z_MSC_RDPS_WindSpeed_IsbL-0010_RLatLon0.09_PT012H.grib2 2026-04-30 02:41 395K
20260430T00Z_MSC_RDPS_WindSpeed_IsbL-0020_RLatLon0.09_PT012H.grib2 2026-04-30 02:41 318K
20260430T00Z_MSC_RDPS_WindSpeed_IsbL-0030_RLatLon0.09_PT012H.grib2 2026-04-30 02:41 319K
20260430T00Z_MSC_RDPS_WindSpeed_IsbL-0050_RLatLon0.09_PT012H.grib2 2026-04-30 02:41 348K
20260430T00Z_MSC_RDPS_WindSpeed_IsbL-0100_RLatLon0.09_PT012H.grib2 2026-04-30 02:41 478K
20260430T00Z_MSC_RDPS_WindSpeed_IsbL-0150_RLatLon0.09_PT012H.grib2 2026-04-30 02:41 386K
20260430T00Z_MSC_RDPS_WindSpeed_IsbL-0175_RLatLon0.09_PT012H.grib2 2026-04-30 02:41 434K
20260430T00Z_MSC_RDPS_WindSpeed_IsbL-0200_RLatLon0.09_PT012H.grib2 2026-04-30 02:41 448K
20260430T00Z_MSC_RDPS_WindSpeed_IsbL-0225_RLatLon0.09_PT012H.grib2 2026-04-30 02:41 454K
20260430T00Z_MSC_RDPS_WindSpeed_IsbL-0250_RLatLon0.09_PT012H.grib2 2026-04-30 02:41 459K
20260430T00Z_MSC_RDPS_WindSpeed_IsbL-0275_RLatLon0.09_PT012H.grib2 2026-04-30 02:41 477K
20260430T00Z_MSC_RDPS_WindSpeed_IsbL-0300_RLatLon0.09_PT012H.grib2 2026-04-30 02:41 472K
20260430T00Z_MSC_RDPS_WindSpeed_IsbL-0350_RLatLon0.09_PT012H.grib2 2026-04-30 02:41 485K
20260430T00Z_MSC_RDPS_WindSpeed_IsbL-0400_RLatLon0.09_PT012H.grib2 2026-04-30 02:41 470K
20260430T00Z_MSC_RDPS_WindSpeed_IsbL-0450_RLatLon0.09_PT012H.grib2 2026-04-30 02:41 470K
20260430T00Z_MSC_RDPS_WindSpeed_IsbL-0500_RLatLon0.09_PT012H.grib2 2026-04-30 02:41 470K
20260430T00Z_MSC_RDPS_WindSpeed_IsbL-0550_RLatLon0.09_PT012H.grib2 2026-04-30 02:41 469K
20260430T00Z_MSC_RDPS_WindSpeed_IsbL-0600_RLatLon0.09_PT012H.grib2 2026-04-30 02:41 595K
20260430T00Z_MSC_RDPS_WindSpeed_IsbL-0650_RLatLon0.09_PT012H.grib2 2026-04-30 02:41 617K
20260430T00Z_MSC_RDPS_WindSpeed_IsbL-0700_RLatLon0.09_PT012H.grib2 2026-04-30 02:41 641K
20260430T00Z_MSC_RDPS_WindSpeed_IsbL-0750_RLatLon0.09_PT012H.grib2 2026-04-30 02:41 715K
20260430T00Z_MSC_RDPS_WindSpeed_IsbL-0800_RLatLon0.09_PT012H.grib2 2026-04-30 02:41 756K
20260430T00Z_MSC_RDPS_WindSpeed_IsbL-0850_RLatLon0.09_PT012H.grib2 2026-04-30 02:41 812K
20260430T00Z_MSC_RDPS_WindSpeed_IsbL-0875_RLatLon0.09_PT012H.grib2 2026-04-30 02:41 832K
20260430T00Z_MSC_RDPS_WindSpeed_IsbL-0900_RLatLon0.09_PT012H.grib2 2026-04-30 02:41 848K
20260430T00Z_MSC_RDPS_WindSpeed_IsbL-0925_RLatLon0.09_PT012H.grib2 2026-04-30 02:41 860K
20260430T00Z_MSC_RDPS_WindSpeed_IsbL-0950_RLatLon0.09_PT012H.grib2 2026-04-30 02:41 864K
20260430T00Z_MSC_RDPS_WindSpeed_IsbL-0970_RLatLon0.09_PT012H.grib2 2026-04-30 02:41 861K
20260430T00Z_MSC_RDPS_WindSpeed_IsbL-0985_RLatLon0.09_PT012H.grib2 2026-04-30 02:41 854K
20260430T00Z_MSC_RDPS_WindSpeed_IsbL-1000_RLatLon0.09_PT012H.grib2 2026-04-30 02:41 850K
20260430T00Z_MSC_RDPS_WindSpeed_IsbL-1015_RLatLon0.09_PT012H.grib2 2026-04-30 02:41 841K
20260430T00Z_MSC_RDPS_WindU_AGL-10m_RLatLon0.09_PT012H.grib2 2026-04-30 02:41 432K
20260430T00Z_MSC_RDPS_WindU_AGL-120m_RLatLon0.09_PT012H.grib2 2026-04-30 02:41 538K
20260430T00Z_MSC_RDPS_WindU_AGL-40m_RLatLon0.09_PT012H.grib2 2026-04-30 02:41 541K
20260430T00Z_MSC_RDPS_WindU_AGL-80m_RLatLon0.09_PT012H.grib2 2026-04-30 02:41 539K
20260430T00Z_MSC_RDPS_WindU_IsbL-0001_RLatLon0.09_PT012H.grib2 2026-04-30 02:41 290K
20260430T00Z_MSC_RDPS_WindU_IsbL-0005_RLatLon0.09_PT012H.grib2 2026-04-30 02:41 283K
20260430T00Z_MSC_RDPS_WindU_IsbL-0010_RLatLon0.09_PT012H.grib2 2026-04-30 02:41 294K
20260430T00Z_MSC_RDPS_WindU_IsbL-0020_RLatLon0.09_PT012H.grib2 2026-04-30 02:41 347K
20260430T00Z_MSC_RDPS_WindU_IsbL-0030_RLatLon0.09_PT012H.grib2 2026-04-30 02:41 311K
20260430T00Z_MSC_RDPS_WindU_IsbL-0050_RLatLon0.09_PT012H.grib2 2026-04-30 02:41 341K
20260430T00Z_MSC_RDPS_WindU_IsbL-0100_RLatLon0.09_PT012H.grib2 2026-04-30 02:41 434K
20260430T00Z_MSC_RDPS_WindU_IsbL-0150_RLatLon0.09_PT012H.grib2 2026-04-30 02:41 402K
20260430T00Z_MSC_RDPS_WindU_IsbL-0175_RLatLon0.09_PT012H.grib2 2026-04-30 02:41 426K
20260430T00Z_MSC_RDPS_WindU_IsbL-0200_RLatLon0.09_PT012H.grib2 2026-04-30 02:41 341K
20260430T00Z_MSC_RDPS_WindU_IsbL-0225_RLatLon0.09_PT012H.grib2 2026-04-30 02:41 346K
20260430T00Z_MSC_RDPS_WindU_IsbL-0250_RLatLon0.09_PT012H.grib2 2026-04-30 02:41 348K
20260430T00Z_MSC_RDPS_WindU_IsbL-0275_RLatLon0.09_PT012H.grib2 2026-04-30 02:41 364K
20260430T00Z_MSC_RDPS_WindU_IsbL-0300_RLatLon0.09_PT012H.grib2 2026-04-30 02:41 358K
20260430T00Z_MSC_RDPS_WindU_IsbL-0350_RLatLon0.09_PT012H.grib2 2026-04-30 02:41 473K
20260430T00Z_MSC_RDPS_WindU_IsbL-0400_RLatLon0.09_PT012H.grib2 2026-04-30 02:41 475K
20260430T00Z_MSC_RDPS_WindU_IsbL-0450_RLatLon0.09_PT012H.grib2 2026-04-30 02:41 474K
20260430T00Z_MSC_RDPS_WindU_IsbL-0500_RLatLon0.09_PT012H.grib2 2026-04-30 02:41 475K
20260430T00Z_MSC_RDPS_WindU_IsbL-0550_RLatLon0.09_PT012H.grib2 2026-04-30 02:41 475K
20260430T00Z_MSC_RDPS_WindU_IsbL-0600_RLatLon0.09_PT012H.grib2 2026-04-30 02:41 465K
20260430T00Z_MSC_RDPS_WindU_IsbL-0650_RLatLon0.09_PT012H.grib2 2026-04-30 02:41 485K
20260430T00Z_MSC_RDPS_WindU_IsbL-0700_RLatLon0.09_PT012H.grib2 2026-04-30 02:41 507K
20260430T00Z_MSC_RDPS_WindU_IsbL-0750_RLatLon0.09_PT012H.grib2 2026-04-30 02:41 534K
20260430T00Z_MSC_RDPS_WindU_IsbL-0800_RLatLon0.09_PT012H.grib2 2026-04-30 02:41 573K
20260430T00Z_MSC_RDPS_WindU_IsbL-0850_RLatLon0.09_PT012H.grib2 2026-04-30 02:41 755K
20260430T00Z_MSC_RDPS_WindU_IsbL-0875_RLatLon0.09_PT012H.grib2 2026-04-30 02:41 775K
20260430T00Z_MSC_RDPS_WindU_IsbL-0900_RLatLon0.09_PT012H.grib2 2026-04-30 02:41 650K
20260430T00Z_MSC_RDPS_WindU_IsbL-0925_RLatLon0.09_PT012H.grib2 2026-04-30 02:41 657K
20260430T00Z_MSC_RDPS_WindU_IsbL-0950_RLatLon0.09_PT012H.grib2 2026-04-30 02:41 656K
20260430T00Z_MSC_RDPS_WindU_IsbL-0970_RLatLon0.09_PT012H.grib2 2026-04-30 02:41 797K
20260430T00Z_MSC_RDPS_WindU_IsbL-0985_RLatLon0.09_PT012H.grib2 2026-04-30 02:41 792K
20260430T00Z_MSC_RDPS_WindU_IsbL-1000_RLatLon0.09_PT012H.grib2 2026-04-30 02:41 787K
20260430T00Z_MSC_RDPS_WindU_IsbL-1015_RLatLon0.09_PT012H.grib2 2026-04-30 02:41 828K
20260430T00Z_MSC_RDPS_WindV_AGL-10m_RLatLon0.09_PT012H.grib2 2026-04-30 02:41 433K
20260430T00Z_MSC_RDPS_WindV_AGL-120m_RLatLon0.09_PT012H.grib2 2026-04-30 02:41 537K
20260430T00Z_MSC_RDPS_WindV_AGL-40m_RLatLon0.09_PT012H.grib2 2026-04-30 02:41 539K
20260430T00Z_MSC_RDPS_WindV_AGL-80m_RLatLon0.09_PT012H.grib2 2026-04-30 02:41 538K
20260430T00Z_MSC_RDPS_WindV_IsbL-0001_RLatLon0.09_PT012H.grib2 2026-04-30 02:41 243K
20260430T00Z_MSC_RDPS_WindV_IsbL-0005_RLatLon0.09_PT012H.grib2 2026-04-30 02:41 283K
20260430T00Z_MSC_RDPS_WindV_IsbL-0010_RLatLon0.09_PT012H.grib2 2026-04-30 02:41 297K
20260430T00Z_MSC_RDPS_WindV_IsbL-0020_RLatLon0.09_PT012H.grib2 2026-04-30 02:41 311K
20260430T00Z_MSC_RDPS_WindV_IsbL-0030_RLatLon0.09_PT012H.grib2 2026-04-30 02:41 314K
20260430T00Z_MSC_RDPS_WindV_IsbL-0050_RLatLon0.09_PT012H.grib2 2026-04-30 02:41 342K
20260430T00Z_MSC_RDPS_WindV_IsbL-0100_RLatLon0.09_PT012H.grib2 2026-04-30 02:41 429K
20260430T00Z_MSC_RDPS_WindV_IsbL-0150_RLatLon0.09_PT012H.grib2 2026-04-30 02:41 401K
20260430T00Z_MSC_RDPS_WindV_IsbL-0175_RLatLon0.09_PT012H.grib2 2026-04-30 02:41 424K
20260430T00Z_MSC_RDPS_WindV_IsbL-0200_RLatLon0.09_PT012H.grib2 2026-04-30 02:41 338K
20260430T00Z_MSC_RDPS_WindV_IsbL-0225_RLatLon0.09_PT012H.grib2 2026-04-30 02:41 344K
20260430T00Z_MSC_RDPS_WindV_IsbL-0250_RLatLon0.09_PT012H.grib2 2026-04-30 02:41 347K
20260430T00Z_MSC_RDPS_WindV_IsbL-0275_RLatLon0.09_PT012H.grib2 2026-04-30 02:41 362K
20260430T00Z_MSC_RDPS_WindV_IsbL-0300_RLatLon0.09_PT012H.grib2 2026-04-30 02:41 357K
20260430T00Z_MSC_RDPS_WindV_IsbL-0350_RLatLon0.09_PT012H.grib2 2026-04-30 02:41 367K
20260430T00Z_MSC_RDPS_WindV_IsbL-0400_RLatLon0.09_PT012H.grib2 2026-04-30 02:41 473K
20260430T00Z_MSC_RDPS_WindV_IsbL-0450_RLatLon0.09_PT012H.grib2 2026-04-30 02:41 473K
20260430T00Z_MSC_RDPS_WindV_IsbL-0500_RLatLon0.09_PT012H.grib2 2026-04-30 02:41 473K
20260430T00Z_MSC_RDPS_WindV_IsbL-0550_RLatLon0.09_PT012H.grib2 2026-04-30 02:41 472K
20260430T00Z_MSC_RDPS_WindV_IsbL-0600_RLatLon0.09_PT012H.grib2 2026-04-30 02:41 463K
20260430T00Z_MSC_RDPS_WindV_IsbL-0650_RLatLon0.09_PT012H.grib2 2026-04-30 02:41 482K
20260430T00Z_MSC_RDPS_WindV_IsbL-0700_RLatLon0.09_PT012H.grib2 2026-04-30 02:41 504K
20260430T00Z_MSC_RDPS_WindV_IsbL-0750_RLatLon0.09_PT012H.grib2 2026-04-30 02:41 530K
20260430T00Z_MSC_RDPS_WindV_IsbL-0800_RLatLon0.09_PT012H.grib2 2026-04-30 02:41 567K
20260430T00Z_MSC_RDPS_WindV_IsbL-0850_RLatLon0.09_PT012H.grib2 2026-04-30 02:41 752K
20260430T00Z_MSC_RDPS_WindV_IsbL-0875_RLatLon0.09_PT012H.grib2 2026-04-30 02:41 772K
20260430T00Z_MSC_RDPS_WindV_IsbL-0900_RLatLon0.09_PT012H.grib2 2026-04-30 02:41 787K
20260430T00Z_MSC_RDPS_WindV_IsbL-0925_RLatLon0.09_PT012H.grib2 2026-04-30 02:41 797K
20260430T00Z_MSC_RDPS_WindV_IsbL-0950_RLatLon0.09_PT012H.grib2 2026-04-30 02:41 797K
20260430T00Z_MSC_RDPS_WindV_IsbL-0970_RLatLon0.09_PT012H.grib2 2026-04-30 02:41 797K
20260430T00Z_MSC_RDPS_WindV_IsbL-0985_RLatLon0.09_PT012H.grib2 2026-04-30 02:41 839K
20260430T00Z_MSC_RDPS_WindV_IsbL-1000_RLatLon0.09_PT012H.grib2 2026-04-30 02:41 833K
20260430T00Z_MSC_RDPS_WindV_IsbL-1015_RLatLon0.09_PT012H.grib2 2026-04-30 02:41 826K